This demonstration page uses our WeatherBlox Daily Observations layout. Learn more.

Left ArrowRight Arrow

36.17497, -115.13722

Hourly Observations for April 17, 2016

Temp ( °F °C ) Dew Point ( °F °C ) Humidity (%) Winds ( mph kmh ) Pressure ( in mb ) Visibility ( mi km ) Precip ( " mm )
12:53 am 00:53 Clear 63 17.2 19 -7.2 18 18 N 7 11 30.11 1020 10 16.0934 0 0
1:53 am 01:53 Clear 64 17.8 15 -9.4 15 15 ENE 15 24 30.11 1020 10 16.0934 0 0
2:53 am 02:53 Clear 64 17.8 16 -8.9 15 15 NE 12 19 30.11 1020 10 16.0934 0 0
3:53 am 03:53 Clear 62 16.7 18 -7.8 18 18 NNW 8 13 30.13 1020 10 16.0934 0 0
4:53 am 04:53 Clear 60 15.6 19 -7.2 20 20 NNW 13 20 30.14 1021 10 16.0934 0 0
5:53 am 05:53 Clear 59 15 20 -6.7 22 22 NW 9 15 30.15 1021 10 16.0934 0 0
6:53 am 06:53 Sunny 61 16.1 21 -6.1 21 21 NNW 14 22 30.16 1021 10 16.0934 0 0
7:53 am 07:53 Sunny 63 17.2 21 -6.1 20 20 NNW 12 19 30.18 1022 10 16.0934 0 0
8:53 am 08:53 Sunny 67 19.4 19 -7.2 16 16 NNW 17 28 30.17 1022 10 16.0934 0 0
9:53 am 09:53 Sunny 70 21.1 16 -8.9 12 12 NNW 12 19 30.16 1022 10 16.0934 0 0
10:53 am 10:53 Sunny 72 22.2 15 -9.4 11 11 NNE 10 17 30.15 1021 10 16.0934 0 0
11:53 am 11:53 Sunny 74 23.3 15 -9.4 10 10 NE 15 24 30.12 1020 10 16.0934 0 0
12:53 pm 12:53 Sunny 74 23.3 15 -9.4 10 10 VRB 3 6 30.09 1019 10 16.0934 0 0
1:53 pm 13:53 Sunny 76 24.4 15 -9.4 10 10 ESE 10 17 30.06 1018 10 16.0934 0 0
2:53 pm 14:53 Sunny 77 25 16 -8.9 10 10 Calm 30.04 1017 10 16.0934 0 0
3:53 pm 15:53 Sunny 77 25 16 -8.9 10 10 ESE 8 13 30.02 1017 10 16.0934 0 0
4:53 pm 16:53 Sunny 77 25 16 -8.9 10 10 ESE 6 9 30.01 1016 10 16.0934 0 0
5:53 pm 17:53 Sunny 76 24.4 16 -8.9 10 10 ESE 8 13 30.01 1016 10 16.0934 0 0
6:53 pm 18:53 Sunny 75 23.9 15 -9.4 10 10 SSE 6 9 30.01 1016 10 16.0934 0 0
7:53 pm 19:53 Clear 73 22.8 18 -7.8 12 12 S 6 9 30.03 1017 10 16.0934 0 0
8:53 pm 20:53 Clear 72 22.2 19 -7.2 13 13 Calm 30.05 1018 10 16.0934 0 0
9:53 pm 21:53 Clear 69 20.6 21 -6.1 16 16 N 3 6 30.07 1018 10 16.0934 0 0
10:53 pm 22:53 Clear 65 18.3 25 -3.9 22 22 N 3 6 30.09 1019 10 16.0934 0 0
11:53 pm 23:53 Clear 66 18.9 20 -6.7 17 17 NE 6 9 30.11 1020 10 16.0934 0 0

Powered by AerisWeather